User: anonymous   Login
Location: Unspecified
(0.0000°N, 0.0000°E)
Time: 04:45:47
(UTC+00:00)
Language:

Nadezhda 1 - Orbit

View from above orbital plane
View from above orbital plane
View from above satellite
View from above satellite

Ground track
Ground track

The orbit data is extracted from the following two-line orbital elements,

1 20103U 89050A   18267.51192907 +.00000026 +00000-0 +11239-4 0  9994
2 20103 082.9610 225.9298 0038860 062.0036 076.0530 13.74567593465649
Epoch (UTC): 24 September 2018 12:17:10
Eccentricity: 0.0038860
inclination: 82.9610°
perigee height: 954 km
apogee height: 1012 km
right ascension of ascending node: 225.9298°
argument of perigee: 62.0036°
revolutions per day: 13.74567593
mean anomaly at epoch: 76.0530°
orbit number at epoch: 46564

The dashed part of the orbit path shows where the satellite is in the earth's shadow,  

DLR